STARLINK-31775, 60052

Orbit data source: Space-Track

STARLINK-31775, 60052 is a payload satellite owned by SpaceX/Seattle (US) in LEO that was launched on Sat, 08 Jun 2024 UTC via an FALCON 9 launch vehicle from the Air Force Western Test Range (AFWTR). Payload-class satellites include a variety of spacecraft equipped with specific instruments for various scientific and technological missions. These include communications satellites like Starlink; space stations such as the ISS; scientific satellites like the Hubble; Earth observation satellites from companies like Planet Labs, Umbra, and HawkEye 360; GPS; miniature CubeSats for education and research; and military/defense satellites.

Loading next visibility...
Identifier
60052, 2024-112Q
Orbit
LEO
Country
Flag of USUS
Related business
Manufacturer
SpaceX/Seattle
Mission
Operational Commercial Communications
Bus & Motor
STARLINK V2M, Unknown motor
Mass
730 kg wet, ~700 kg dry
Launch date (UTC)
2024-06-08 (2 years ago)
Launch vehicle
FALCON 9
Launch site
Air Force Western Test Range (AFWTR)
Object type
Payload
Rocket body
Debris
Shape & HBR
Box + 2 Pan, 17.7 m
Radar Cross Section
33.884 m², Large (>1 m²)

Expand to show TLE details & history
Last TLE update: 1 day ago

TLE from 1 day ago
0 STARLINK-31775
1 60052U 24112Q   26170.64873399  .00001743  00000-0  70952-4 0  9990
2 60052  53.1619 324.6475 0001139 111.2159 248.8963 15.30200194114208
Epoch: 2026-06-19T15:34Z
TLE epoch observation values (Epoch: 2026-06-19T15:34:10.616Z)
Latitude
-0.00008°
Longitude
-176.77148°
Altitude
476.396 km
Speed
7.629 km/s
True Right ascension
21h 38m 35s
True Declination
0° 00' 00"
Sunlit
Object was in full shadow at epoch
Visualization orbit readout
Latitude
Unknown
Longitude
Unknown
Altitude
Unknown
Speed
Unknown
Apparent Right ascension
Unknown
Apparent Declination
Unknown
Sunlit
N/A
Visualization observer readout
Local Sidereal Time
08:32:41
Azimuth
Unknown
Elevation
Unknown
Doppler factor
Unknown
Orbital elements
Apogee altitude
476.251 km
Perigee altitude
474.69 km
Semi-major axis
6,853.608 km
Eccentricity
0.00011
Inclination
53.1619°
RAAN
324.6475°
Arg. of periapsis
111.2159°
True anomaly
248.88412°
Mean anomaly
248.8963°
Eccentric anomaly
248.89021°
Mean motion
3.82529 °/min
Orbital period
94.11 mins
BSTAR
0.000070952
Loading maneuver chart data...
Computing Atmospheric mass density...
Loading historical data...
Loading historical data...
Loading historical data...
Loading historical data...
Loading historical data...
Loading historical data...
Loading historical data...

Documentation

Showing up to 5 results
|